Date String (YYYY-MM-DD hh:mm:ss) UTC,Instrument flags,Ambient pressure (hPa),Sample flow (lpm),Bypass flow (lpm),Sample temperature (°C),Ambient temperature (°C),ASC tube jacket temperature (°C),LED temperature (°C),Box temperature (°C),Sample RH (%),Span deviation,Mass concentration (μg/m³),Mass concentration (μg/m³),Mass concentration (μg/m³)
DateTimeUTC,F1_M11,P_M11,Q1_M11,Q2_M11,T1_M11,T2_M11,T3_M11,T4_M11,T5_M11,U1_M11,ZSPAN_M11,X0_M11,X2_M11,X1_M11
2022-11-10 09:00:00,,0820.2,5.01,0.00,21.9,20.3,00.0,30.9,23.6,13.5,0000.0,0001.31,0000.35,0000.15
2022-11-10 09:01:00,,0820.2,5.00,0.00,21.9,20.2,00.0,30.9,23.6,13.3,0000.0,0001.96,0000.37,0000.16
2022-11-10 09:02:00,,0820.2,5.00,0.00,21.9,20.3,00.0,30.9,23.6,13.2,0000.0,0003.06,0000.37,0000.16
2022-11-10 09:03:00,,0820.3,5.00,0.00,22.0,21.3,00.0,30.8,23.9,13.2,0000.0,0003.06,0000.36,0000.16
2022-11-10 09:04:00,,0820.3,4.99,0.00,22.1,22.1,00.0,30.8,24.1,13.1,0000.0,0003.01,0000.34,0000.15
2022-11-10 09:05:00,,0820.3,4.99,0.00,22.1,21.8,00.0,30.9,24.1,13.0,0000.0,0002.97,0000.32,0000.15
2022-11-10 09:06:00,,0820.4,5.00,0.00,22.1,21.5,00.0,30.9,24.0,13.0,0000.0,0002.75,0000.31,0000.16
2022-11-10 09:07:00,,0820.4,4.99,0.00,22.1,21.2,00.0,30.9,24.0,13.1,0000.0,0002.34,0000.31,0000.15
2022-11-10 09:08:00,,0820.4,5.00,0.00,22.1,20.9,00.0,30.9,23.9,12.9,0000.0,0002.35,0000.31,0000.15
2022-11-10 09:09:00,,0820.5,5.01,0.00,22.1,20.7,00.0,31.0,23.8,12.9,0000.0,0002.38,0000.30,0000.15
2022-11-10 09:10:00,,0820.6,5.00,0.00,22.0,20.5,00.0,31.0,23.7,13.1,0000.0,0002.39,0000.29,0000.15
2022-11-10 09:11:00,,0820.6,5.00,0.00,22.0,20.5,00.0,31.0,23.7,13.4,0000.0,0002.34,0000.26,0000.14
2022-11-10 09:12:00,,0820.6,5.00,0.00,22.0,20.4,00.0,31.0,23.7,13.5,0000.0,0001.66,0000.27,0000.14
2022-11-10 09:13:00,,0820.6,5.00,0.00,21.9,20.3,00.0,30.9,23.6,13.6,0000.0,0000.62,0000.26,0000.14
2022-11-10 09:14:00,,0820.6,5.01,0.00,21.9,20.2,00.0,30.9,23.6,13.7,0000.0,0000.58,0000.25,0000.14
2022-11-10 09:15:00,,0820.6,5.00,0.00,21.9,20.2,00.0,30.9,23.6,13.7,0000.0,0000.58,0000.25,0000.14
2022-11-10 09:16:00,,0820.6,5.00,0.00,21.9,20.5,00.0,30.9,23.7,13.6,0000.0,0000.57,0000.24,0000.14
2022-11-10 09:17:00,,0820.6,5.00,0.00,22.0,21.6,00.0,30.8,23.9,13.6,0000.0,0001.05,0000.25,0000.14
2022-11-10 09:18:00,,0820.6,4.98,0.00,22.1,22.3,00.0,30.9,24.1,13.5,0000.0,0002.20,0000.25,0000.13
2022-11-10 09:19:00,,0820.6,5.00,0.00,22.1,22.0,00.0,30.9,24.1,13.6,0000.0,0002.19,0000.25,0000.13
2022-11-10 09:20:00,,0820.7,5.01,0.00,22.1,21.6,00.0,30.9,24.1,13.7,0000.0,0002.17,0000.26,0000.13
2022-11-10 09:21:00,,0820.7,5.00,0.00,22.1,21.4,00.0,30.9,24.0,13.7,0000.0,0002.16,0000.28,0000.13
2022-11-10 09:22:00,,0820.7,5.00,0.00,22.1,21.2,00.0,30.9,24.0,13.7,0000.0,0002.20,0000.30,0000.13
2022-11-10 09:23:00,,0820.7,5.01,0.00,22.1,21.0,00.0,30.9,23.9,13.7,0000.0,0002.13,0000.27,0000.14
2022-11-10 09:24:00,,0820.7,5.00,0.00,22.1,20.9,00.0,31.0,23.9,13.7,0000.0,0002.15,0000.28,0000.14
2022-11-10 09:25:00,,0820.7,5.00,0.00,22.1,20.8,00.0,31.0,23.9,13.6,0000.0,0002.18,0000.30,0000.14
2022-11-10 09:26:00,,0820.7,5.00,0.00,22.1,20.7,00.0,31.0,23.8,13.5,0000.0,0002.19,0000.30,0000.14
2022-11-10 09:27:00,,0820.7,5.00,0.00,22.1,20.6,00.0,31.0,23.8,13.5,0000.0,0002.18,0000.30,0000.15
2022-11-10 09:28:00,,0820.7,5.00,0.00,22.0,20.6,00.0,31.0,23.8,13.5,0000.0,0001.96,0000.30,0000.14
2022-11-10 09:29:00,,0820.7,5.00,0.00,22.0,20.5,00.0,31.0,23.7,13.5,0000.0,0000.55,0000.29,0000.15
2022-11-10 09:30:00,,0820.8,5.01,0.00,22.0,20.4,00.0,30.9,23.7,13.5,0000.0,0000.56,0000.29,0000.15
2022-11-10 09:31:00,,0820.9,5.01,0.00,22.0,20.4,00.0,30.9,23.7,13.6,0000.0,0000.55,0000.29,0000.15
2022-11-10 09:32:00,,0820.9,5.00,0.00,22.0,20.4,00.0,30.9,23.7,13.6,0000.0,0000.56,0000.29,0000.15
2022-11-10 09:33:00,,0820.9,5.00,0.00,22.0,21.1,00.0,30.9,23.9,13.6,0000.0,0000.61,0000.30,0000.15
2022-11-10 09:34:00,,0820.9,5.00,0.00,22.1,22.2,00.0,30.9,24.2,13.1,0000.0,0000.61,0000.30,0000.14
2022-11-10 09:35:00,,0820.9,4.99,0.00,22.2,22.3,00.0,30.9,24.3,13.1,0000.0,0000.66,0000.30,0000.14
2022-11-10 09:36:00,,0820.9,5.00,0.00,22.2,21.9,00.0,30.9,24.2,13.4,0000.0,0000.66,0000.29,0000.14
2022-11-10 09:37:00,,0820.9,5.01,0.00,22.2,21.7,00.0,31.0,24.2,13.4,0000.0,0000.67,0000.30,0000.14
2022-11-10 09:38:00,,0820.9,5.00,0.00,22.2,21.4,00.0,31.0,24.1,13.4,0000.0,0000.67,0000.30,0000.14
2022-11-10 09:39:00,,0820.9,5.01,0.00,22.2,21.2,00.0,31.0,24.1,12.2,0000.0,0000.66,0000.31,0000.14
2022-11-10 09:40:00,,0820.9,5.00,0.00,22.2,21.1,00.0,31.0,24.0,12.6,0000.0,0000.66,0000.31,0000.15
2022-11-10 09:41:00,,0820.9,4.99,0.00,22.2,21.0,00.0,31.0,24.0,12.9,0000.0,0000.64,0000.30,0000.14
2022-11-10 09:42:00,,0820.9,4.99,0.00,22.2,20.9,00.0,31.0,24.0,11.6,0000.0,0000.66,0000.30,0000.15
2022-11-10 09:43:00,,0820.9,5.00,0.00,22.2,20.8,00.0,31.0,24.0,12.0,0000.0,0000.62,0000.29,0000.14
2022-11-10 09:44:00,,0820.9,5.01,0.00,22.2,20.7,00.0,31.0,24.0,12.7,0000.0,0000.57,0000.26,0000.14
2022-11-10 09:45:00,,0820.9,5.01,0.00,22.1,20.7,00.0,31.0,23.9,12.9,0000.0,0000.85,0000.25,0000.14
2022-11-10 09:46:00,,0820.9,5.00,0.00,22.1,20.7,00.0,31.0,23.9,12.4,0000.0,0000.88,0000.27,0000.14
2022-11-10 09:47:00,,0820.9,4.99,0.00,22.1,20.6,00.0,31.0,23.9,12.1,0000.0,0000.87,0000.27,0000.14
2022-11-10 09:48:00,,0820.9,4.99,0.00,22.1,20.6,00.0,31.0,23.9,11.0,0000.0,0000.84,0000.25,0000.15
2022-11-10 09:49:00,,0820.9,4.99,0.00,22.1,20.6,00.0,30.9,23.9,11.0,0000.0,0000.89,0000.26,0000.14
2022-11-10 09:50:00,,0820.8,5.01,0.00,22.1,20.6,00.0,30.9,23.8,11.6,0000.0,0000.92,0000.27,0000.14
2022-11-10 09:51:00,,0820.8,5.01,0.00,22.0,20.5,00.0,30.9,23.8,11.2,0000.0,0000.91,0000.27,0000.14
2022-11-10 09:52:00,,0820.9,5.00,0.00,22.1,21.0,00.0,30.9,23.9,10.5,0000.0,0000.92,0000.27,0000.15
2022-11-10 09:53:00,,0820.9,4.99,0.00,22.2,22.0,00.0,30.9,24.2,10.3,0000.0,0000.90,0000.27,0000.16
2022-11-10 09:54:00,,0820.9,5.00,0.00,22.3,22.3,00.0,30.9,24.3,09.8,0000.0,0000.98,0000.30,0000.17
2022-11-10 09:55:00,,0820.9,5.02,0.00,22.3,21.9,00.0,31.0,24.3,09.7,0000.0,0001.03,0000.32,0000.17
2022-11-10 09:56:00,,0820.9,4.99,0.00,22.3,21.6,00.0,31.0,24.2,10.0,0000.0,0000.79,0000.35,0000.18
2022-11-10 09:57:00,,0820.9,4.99,0.00,22.2,21.4,00.0,31.0,24.1,10.0,0000.0,0000.71,0000.33,0000.18
2022-11-10 09:58:00,,0820.9,5.00,0.00,22.2,21.2,00.0,31.0,24.1,09.8,0000.0,0000.69,0000.33,0000.19
2022-11-10 09:59:00,,0820.9,5.00,0.00,22.2,21.1,00.0,31.0,24.1,09.8,0000.0,0000.70,0000.34,0000.20
